Flag for France Weather past 2 weeks in Amsterdam Island, French Southern Territories, France

Now
58 °F

Cool.


Feels Like: 57 °F
Forecast: 58 / 65 °F
Wind: 5 mph from Southwest

Location: Martin De Vivies Ile Amsterdam

Current Time: Dec 18, 2014 at 11:46:10 PM

Latest Report: Dec 18, 2014 at 11:00 PM


Visibility: N/A

Pressure: 30.07 "Hg

Humidity: 85%

Dew point: 53 °F

Location of Amsterdam IslandLocation

Historic Weather in Amsterdam Island — Graph

°F

Amsterdam Island temperature yesterday

Maximum temperature yesterday: 66 °F (at 8:00 AM)
Minimum temperature yesterday: 59 °F (at 11:00 PM)
Average temperature yesterday: 63 °F

Past Weeks' High & Low Weather Summary

 TemperatureHumidityPressure
High71 °F (Dec 4, 1:00 PM)97% (Dec 16, 4:00 AM)30.51 "Hg (Dec 16, 4:00 AM)
Low49 °F (Dec 12, 8:00 PM)49% (Dec 12, 11:00 AM)29.66 "Hg (Dec 4, 7:00 AM)
Average59 °F75%30.23 "Hg
* Reported Dec 3 10:00 PM — Dec 18 10:00 PM, Amsterdam Island, Weather by CustomWeather, © 2014

Note: Actual official high and low records may vary slightly from our data, if they occured in-between our weather recording intervals... More about our weather records

Advertising

Amsterdam Island weather history for previous 24 hours

 ConditionsComfort  
Time TempWeatherWind HumidityBarometerVisibility
10:00 PM
Dec 18
57 °FCool.6 mph86%30.07 "HgN/A
9:00 PM58 °FCool.6 mph86%30.07 "HgN/A
8:00 PM60 °FCool.3 mph83%30.05 "HgN/A
7:00 PM61 °FCool.3 mph80%30.02 "HgN/A
6:00 PM62 °FCool.5 mph78%30.00 "HgN/A
5:00 PM62 °FMild.8 mph78%29.99 "HgN/A
4:00 PM65 °FMild.9 mph70%29.98 "HgN/A
3:00 PM65 °FMild.8 mph74%29.99 "HgN/A
2:00 PM67 °FMild.8 mph68%29.98 "HgN/A
1:00 PM68 °FMild.9 mph66%29.98 "HgN/A
12:00 PM65 °FMild.8 mph72%29.98 "HgN/A
11:00 AM65 °FMild.7 mph72%29.98 "HgN/A
10:00 AM64 °FMild.7 mph77%29.99 "HgN/A
9:00 AM63 °FMild.5 mph79%29.99 "HgN/A
7:00 AM62 °FCool.3 mph77%29.97 "HgN/A
6:00 AM59 °FCool.2 mph81%29.97 "HgN/A
5:00 AM58 °FCool.5 mph84%29.96 "HgN/A
4:00 AM57 °FCool.3 mph86%29.95 "HgN/A
3:00 AM57 °FCool.2 mph84%29.94 "HgN/A
1:00 AM59 °FCool.6 mph79%29.93 "HgN/A
12:00 AM59 °FCool.6 mph80%29.92 "HgN/A
11:00 PM
Dec 17
59 °FCool.8 mph81%29.92 "HgN/A
Weather by CustomWeather, © 2014

See weather overviewHow to use our weather pages